STARLINK-35916

Last updated on Tue Dec 16 2025 00:02:05 GMT+0000 (Coordinated Universal Time)

1 66504U 25263V 25349.38979099 .00030809 00000+0 74094-3 0 9992 2 66504 42.9995 111.3657 0001680 270.1602 89.9062 15.40735767 5956
UTC large
Height (km)
Speed (km/s)
/
Latitude / Longitude
Inclination (degrees)
Orbital Period (minutes)
Azimuth
Elevation
Range (km)
Doppler Factor

Next 0 passes for location: London (51.5072 / 0.1276)

Sorry there are no passes over London.